(887) Alinda
ephemeris date magn radius delta ra dec elong phase
Today6 Jul 202518.32.196 AU2.046 AU12h45m+05°38'84.5°27.4°
(887) Alinda - 2025-07-06
astro.vanbuitenen.nl


 
-1 year
-1 month
-1 day
Now
+1 day
+1 month
+1 year

The interactive orbit chart above shows the body's path through the solar system and its position at the given date. Green and blue lines are shown perpendicular to the ecliptic plane: Green if the path is above the ecliptic plane, blue if it is below. (Left-click and drag to rotate the view; Right-click and drag to move the view; Use scroll wheel to zoom in our out.)

The orbital elements of Alinda are:

            e (Eccentricity)                : 0.5711889
            a (Semimajor axis)              : 2.4732676
            i (Inclination)                 : 9.39989
            Ω (Longitude of ascending node) : 110.40817
            ω (Argument of perihelion)      : 350.51881
            M (Mean anomaly)                : 30.88098
            Epoch                           : 2025 May 05

            L (Longitude of perihelion)     : 101.05202
            B (Latitude of perihelion)      : -1.54164
            P (Orbital period in years)     : 3.89            
        

The light curve chart below shows the estimated development of the minor planet's magnitude.


The all-sky chart below shows the path of the minor planet over the same period as the light curve. The current position is marked yellow.





The following chart shows the path of the minor planet in the next few days. The field of view is optimized for (~10x50) binoculars and finderscopes. A more printer-friendly version of the same chart can be found below.




Ephemerides:
Date       Time       RA (2000)    DEC (2000)    delta   radius  elong  phase   PA    magn
2025-07-06 00:00 UT   12 45 47.9   +05 38 58     2.046    2.196   84.5   27.4   112   18.3 
2025-07-06 18:04 UT   12 46 47.5   +05 29 15     2.060    2.201   84.1   27.3   112   18.3 
2025-07-07 00:00 UT   12 47 07.1   +05 26 04     2.064    2.203   84.0   27.3   112   18.3 
2025-07-08 00:00 UT   12 48 26.3   +05 13 13     2.082    2.210   83.4   27.2   112   18.4 
2025-07-09 00:00 UT   12 49 45.7   +05 00 25     2.100    2.217   82.9   27.1   112   18.4 
2025-07-10 00:00 UT   12 51 05.3   +04 47 40     2.118    2.223   82.3   26.9   112   18.4 
2025-07-11 00:00 UT   12 52 24.9   +04 34 59     2.136    2.230   81.7   26.8   112   18.4 
2025-07-12 00:00 UT   12 53 44.7   +04 22 20     2.154    2.237   81.2   26.7   112   18.4 
2025-07-13 00:00 UT   12 55 04.7   +04 09 45     2.173    2.244   80.6   26.5   111   18.5 
2025-07-14 00:00 UT   12 56 24.7   +03 57 14     2.191    2.251   80.1   26.4   111   18.5 
2025-07-15 00:00 UT   12 57 44.9   +03 44 45     2.209    2.258   79.5   26.3   111   18.5 
2025-07-16 00:00 UT   12 59 05.2   +03 32 19     2.227    2.264   79.0   26.1   111   18.5 
2025-07-17 00:00 UT   13 00 25.7   +03 19 57     2.245    2.271   78.4   26.0   111   18.5 
2025-07-18 00:00 UT   13 01 46.2   +03 07 38     2.263    2.278   77.9   25.9   111   18.6 
2025-07-19 00:00 UT   13 03 07.0   +02 55 22     2.281    2.284   77.3   25.7   111   18.6 
2025-07-20 00:00 UT   13 04 27.8   +02 43 08     2.299    2.291   76.8   25.6   111   18.6 
2025-07-21 00:00 UT   13 05 48.8   +02 30 58     2.318    2.298   76.2   25.4   111   18.6 
2025-07-22 00:00 UT   13 07 09.8   +02 18 51     2.336    2.304   75.6   25.3   110   18.6 
2025-07-23 00:00 UT   13 08 31.1   +02 06 47     2.354    2.311   75.1   25.1   110   18.7 
2025-07-24 00:00 UT   13 09 52.4   +01 54 46     2.372    2.318   74.5   25.0   110   18.7 
2025-07-25 00:00 UT   13 11 13.9   +01 42 49     2.390    2.324   74.0   24.8   110   18.7 
2025-07-26 00:00 UT   13 12 35.5   +01 30 54     2.408    2.331   73.4   24.7   110   18.7 
2025-07-27 00:00 UT   13 13 57.3   +01 19 02     2.426    2.338   72.9   24.5   110   18.7 


    Terminology:
            
    delta:  distance between minor planet and earth in AU
    radius: distance between minor planet and sun in AU
    magn:   magnitude (brightness) estimate    
    ra:     right ascension in hours (24h = 360deg)
    dec:    declination in degrees
    elong:  elongation in degrees (angle sun-earth-minor planet)    
    phase:  phase angle in degrees (angle sun-minor planet-earth)        
    AU:     Astronomical Unit (mean distance between earth and sun: 149597870.7 km
    

Orbital elements provided by the MPC (Minor Planet Center).
Calculations by a modified version of AAPlus, a C# implementation of the AA+ project by PJ Naughter from the algorithms presented in the book "Astronomical Algorithms" by Jean Meeus.
NGC2000 dso catalog and star labels from VizieR as provided by the Strasbourg astronomical Data Center.
Tycho2 catalog from the ESO archive.